Location: Newark
(25.0000°N, 73.5000°E)
Time: 15:54:13
(UTC+00:00)

A-11 Canister half - All Passes

Search period start: 26 February 2021 00:00
Search period end: 08 March 2021 00:00
Orbit: 1524 x 1684 km, 47.3° (Epoch: 25 February)

Date Brightness Start Highest point End Pass type
(mag) Time Alt. Az. Time Alt. Az. Time Alt. Az.
26 Feb - 00:40:13 10° WSW 00:49:18 44° NW 00:58:10 10° NE visible
26 Feb - 02:50:24 10° NW 02:56:41 19° NNW 03:02:55 10° NNE daylight
26 Feb - 04:58:38 10° NNW 05:05:20 21° NNE 05:12:01 10° ENE daylight
26 Feb - 07:03:07 10° NW 07:12:12 56° NE 07:21:22 10° ESE daylight
26 Feb - 09:08:29 10° WNW 09:16:55 40° SW 09:25:33 10° SSE daylight
26 Feb - 22:13:05 10° SSW 22:22:31 52° SE 22:31:37 10° ENE visible
27 Feb - 00:18:24 10° WSW 00:27:36 47° NW 00:36:34 10° NE visible
27 Feb - 02:28:28 10° NW 02:34:53 20° NNW 02:41:14 10° NNE daylight
27 Feb - 04:36:57 10° NNW 04:43:32 21° NNE 04:50:06 10° ENE daylight
27 Feb - 06:41:29 10° NW 06:50:31 53° NE 06:59:36 10° ESE daylight
27 Feb - 08:46:45 10° WNW 08:55:19 43° SW 09:04:03 10° SSE daylight
27 Feb - 21:51:32 10° SSW 22:00:52 49° SE 22:09:55 10° ENE visible
27 Feb - 23:56:35 10° WSW 00:05:53 49° NW 00:14:57 10° NE visible
28 Feb - 02:06:31 10° WNW 02:13:05 20° NNW 02:19:33 10° NNE daylight
28 Feb - 04:15:15 10° NNW 04:21:44 20° NNE 04:28:11 10° ENE daylight
28 Feb - 06:19:52 10° NW 06:28:50 50° NE 06:37:50 10° ESE daylight
28 Feb - 08:25:01 10° WNW 08:33:42 46° SW 08:42:33 10° SSE daylight
28 Feb - 21:29:59 10° SSW 21:39:14 46° SE 21:48:11 10° ENE visible
28 Feb - 23:34:45 10° WSW 23:44:11 52° NW 23:53:21 10° NE visible
01 Mar - 01:44:34 10° WNW 01:51:16 21° NNW 01:57:52 10° NNE daylight
01 Mar - 03:53:32 10° NNW 03:59:56 20° NNE 04:06:16 10° ENE daylight
01 Mar - 05:58:15 10° NW 06:07:09 48° NE 06:16:03 10° ESE daylight
01 Mar - 08:03:18 10° WNW 08:12:04 49° SW 08:21:02 10° SSE daylight
01 Mar - 21:08:26 10° SSW 21:17:36 43° SE 21:26:27 10° ENE visible
01 Mar - 23:12:57 10° WSW 23:22:28 54° NW 23:31:43 10° NE visible
02 Mar - 01:22:37 10° WNW 01:29:27 21° NNW 01:36:12 10° NNE daylight
02 Mar - 03:31:49 10° NNW 03:38:07 19° NNE 03:44:22 10° NE daylight
02 Mar - 05:36:38 10° NW 05:45:26 45° NE 05:54:15 10° ESE daylight
02 Mar - 07:41:34 10° WNW 07:50:27 52° SW 07:59:29 10° SSE daylight
02 Mar - 20:46:56 10° SSW 20:55:57 40° SE 21:04:42 10° ENE visible
02 Mar - 22:51:10 10° WSW 23:00:47 57° NW 23:10:06 10° NE visible
03 Mar - 01:00:39 10° WNW 01:07:40 22° NNW 01:14:33 10° NNE visible
03 Mar - 03:10:05 10° NNW 03:16:18 19° N 03:22:29 10° NE daylight
03 Mar - 05:15:01 10° NW 05:23:44 43° NE 05:32:27 10° ESE daylight
03 Mar - 07:19:52 10° NW 07:28:50 55° SW 07:37:56 10° SSE daylight
03 Mar - 20:25:26 10° SSW 20:34:19 38° SE 20:42:56 10° ENE visible
03 Mar - 22:29:23 10° WSW 22:39:05 60° NW 22:48:30 10° NE visible
04 Mar - 00:38:42 10° WNW 00:45:51 23° NNW 00:52:54 10° NNE visible
04 Mar - 02:48:20 10° NNW 02:54:29 19° N 03:00:35 10° NE daylight
04 Mar - 04:53:23 10° NW 05:02:02 41° NNE 05:10:38 10° E daylight
04 Mar - 06:58:10 10° NW 07:07:12 59° SW 07:16:22 10° SSE daylight
04 Mar - 20:03:56 10° S 20:12:40 35° SE 20:21:09 10° ENE visible
04 Mar - 22:07:36 10° WSW 22:17:24 64° NW 22:26:52 10° NE visible
05 Mar - 00:16:45 10° WNW 00:24:04 23° NNW 00:31:14 10° NNE visible
05 Mar - 02:26:35 10° NNW 02:32:40 18° N 02:38:42 10° NE daylight
05 Mar - 04:31:45 10° NW 04:40:19 39° NNE 04:48:50 10° E daylight
05 Mar - 06:36:28 10° NW 06:45:35 63° SW 06:54:47 10° SSE daylight
05 Mar - 08:48:12 10° WSW 08:49:36 10° WSW 08:51:00 10° SW daylight
05 Mar - 19:42:29 10° S 19:51:02 33° SE 19:59:21 10° ENE visible
05 Mar - 21:45:51 10° WSW 21:55:42 67° NW 22:05:14 10° NE visible
05 Mar - 23:54:47 10° WNW 00:02:16 24° NNW 00:09:36 10° NNE visible
06 Mar - 02:04:48 10° NW 02:10:51 18° N 02:16:50 10° NE daylight
06 Mar - 04:10:08 10° NW 04:18:36 37° NNE 04:27:01 10° E daylight
06 Mar - 06:14:47 10° NW 06:23:57 67° SW 06:33:12 10° SSE daylight
06 Mar - 08:25:05 10° WSW 08:27:59 12° WSW 08:30:54 10° SW daylight
06 Mar - 19:21:02 10° S 19:29:23 31° SE 19:37:31 10° ENE visible
06 Mar - 21:24:05 10° SW 21:34:00 71° NW 21:43:37 10° NE visible
06 Mar - 23:32:50 10° WNW 23:40:28 25° NNW 23:47:58 10° NNE visible
07 Mar - 01:43:00 10° NW 01:49:01 18° N 01:54:57 10° NE daylight
07 Mar - 03:48:29 10° NNW 03:56:52 36° NNE 04:05:10 10° E daylight
07 Mar - 05:53:06 10° NW 06:02:20 71° SW 06:11:36 10° SE daylight
07 Mar - 08:02:34 10° W 08:06:22 13° SW 08:10:13 10° SSW daylight
07 Mar - 18:59:37 10° S 19:07:45 29° SE 19:15:41 10° ENE night (unlit)
07 Mar - 21:02:20 10° SW 21:12:19 75° NW 21:21:58 10° NE visible
07 Mar - 23:10:53 10° WNW 23:18:41 26° NNW 23:26:20 10° NNE visible
